Location: Newark
(49.7697°N, 2.7094°E)
Time: 01:37:23
(UTC+00:00)

LO-87 - Visible Passes

Search period start: 03 April 2020 00:00
Search period end: 13 April 2020 00:00
Orbit: 473 x 491 km, 97.4° (Epoch: 02 April)

Date Brightness Start Highest point End Pass type
(mag) Time Alt. Az. Time Alt. Az. Time Alt. Az.
03 Apr ? 22:17:13 15° N 22:17:13 15° N 22:17:57 10° N visible
04 Apr ? 21:51:47 13° NNE 21:51:47 13° NNE 21:52:27 10° NNE visible
04 Apr ? 23:26:05 10° NNW 23:26:05 10° NNW 23:26:10 10° NNW visible
05 Apr ? 21:26:21 10° NE 21:26:21 10° NE 21:26:25 10° NNE visible
05 Apr ? 23:00:39 15° NNW 23:00:39 15° NNW 23:01:18 10° NNW visible
06 Apr ? 22:35:12 18° N 22:35:12 18° N 22:36:12 10° N visible
07 Apr ? 22:09:46 17° NNE 22:09:46 17° NNE 22:10:52 10° N visible
08 Apr ? 21:44:19 14° NNE 21:44:19 14° NNE 21:45:16 10° NNE visible
08 Apr ? 23:18:37 14° NNW 23:18:37 14° NNW 23:19:15 10° NNW visible
09 Apr ? 22:53:10 19° NNW 22:53:10 19° NNW 22:54:18 10° NNW visible
10 Apr ? 22:27:43 22° N 22:27:43 22° N 22:29:08 10° N visible
11 Apr ? 22:02:16 19° NNE 22:02:16 19° NNE 22:03:44 10° N visible
11 Apr ? 23:36:34 13° NW 23:36:34 13° NW 23:37:03 10° NW visible
12 Apr ? 21:36:49 14° NE 21:36:49 14° NE 21:38:00 10° NNE visible
12 Apr ? 23:11:07 19° NNW 23:11:07 19° NNW 23:12:17 10° NNW visible
